OBJECT F

Last updated on Wed Jun 15 2022 00:02:05 GMT+0000 (Coordinated Universal Time)

1 52802U 22060F 22159.71222478 .01647235 75461-5 11327-2 0 9991 2 52802 41.4702 269.0431 0095167 150.3343 210.2956 16.05940010 617

Satellite not in orbit